Weather in Tsarev

Russia / Volgograd Oblast     48°39′52″N   45°22′19″E
temp.,
°C
wind,
m/s
gust,
m/s
humid.,
%
clouds,
%
prec.,
mm/h
press.,
hPa
HPBL,
m
28 july, wed
wed2800:00+24ne343584 0.0 101651
03:00+21nne22425 0.0 101611
06:00+23nw23395 0.0 1017106
09:00+29nnw34284 0.0 10161101
12:00+32nnw54244 0.0 10153254
15:00+33nnw55203 0.0 10143532
18:00+32nnw55213 0.0 10132615
21:00+26ne48355 0.0 1014137
29 july, thu
thu2900:00+25e343597 0.0 101441
03:00+24se3538100 0.0 101467
06:00+25sse243550 0.0 1014112
09:00+32s44225 0.0 10131251
12:00+35wsw551868 0.0 10123678
15:00+36w651794 0.0 10103632
18:00+34wsw551840 0.0 10102606
21:00+29nne353592 0.0 1010121
30 july, fri
fri3000:00+26se22435 0.0 101013
03:00+25sw224238 0.0 101016
06:00+27wnw24375 0.0 1010112
09:00+33wsw45272 0.0 10101310
12:00+36wsw562072 0.0 10093521
15:00+35w5620100 0.0 10083305
18:00+35w56198 0.0 10083038
21:00+29wsw45278 0.0 100866
31 july, sat
sat3100:00+26nw510475 0.0 1009193
03:00+24nw335695 0.0 100939
06:00+27sw234797 0.0 1009105
09:00+34sw452412 0.0 10091146
12:00+37w651798 0.0 10093398
15:00+35w451758 0.0 10081534
18:00+29n810415 0.0 1009343
21:00+27ne473987 0.0 1010148
1 august, sun
sun100:00+25e224793 0.0 101122
03:00+25ene334697 0.0 101121
06:00+27e2442100 0.0 1012128
09:00+30ene343394 0.0 1012459
12:00+37ene23195 0.0 10103188
15:00+37ne2318100 0.0 10093150
18:00+33n5823100 0.0 1009201
21:00+32ene5925100 0.0 1010153